Simultaneous Nadir Overpasses (SNOs) Predictions

Prediction of SNOs between GOES-15 and METOP-A Satellite Orbit:

Table of predicted SNOs for the next 14.0 days since TLE Epoch: 1/26/2017
Index Date Time (GOES-15) GOES-15 Lat,Lon METOP-A Lat,Lon Distance(km) Time Diff (sec)
1 01/28/2017 06:43:04 -0.02,-135.30 -0.63,-137.96 303.46 80
2 01/29/2017 06:19:44 -0.01,-135.31 0.48,-132.96 267.60 80
3 01/30/2017 18:41:17 0.02,-135.31 0.49,-137.53 252.88 80
4 01/31/2017 18:17:57 0.02,-135.32 -0.63,-132.54 317.81 80
5 02/02/2017 06:39:37 -0.03,-135.37 -0.42,-137.12 199.93 80
6 02/03/2017 06:16:17 -0.02,-135.38 0.70,-132.13 370.25 80
7 02/04/2017 18:37:48 0.03,-135.36 0.33,-136.69 151.65 80
8 02/05/2017 18:14:29 0.02,-135.37 -0.79,-131.70 418.02 80
9 02/07/2017 06:36:09 -0.03,-135.40 -0.20,-136.30 101.23 80
10 02/08/2017 06:12:50 -0.02,-135.41 0.92,-131.30 468.24 80
11 02/09/2017 18:34:20 0.03,-135.37 0.16,-135.85 54.64 80




NCC Satellite Simultaneous Nadir Overpasses (SNOs) Prediction Service
